This is the latest recevied weather packets stored in our database for station/object K7DC. If no packets are shown the sender has not sent any weather packets the latest 10 day(s).
| Time | Temp. | Humidity | Pressure | Rain* | Wind** | Luminosity | Snow |
|---|---|---|---|---|---|---|---|
| 1788152829 | 29.44° C | 46% | 1014.8 hPa | 0 mm | - | 0 W/m² | - |
| 1788152528 | 29.44° C | 46% | 1015 hPa | 0 mm | - | 0 W/m² | - |
| 1788152239 | 30° C | 46% | 1014.8 hPa | 0 mm | - | 0 W/m² | - |
| 1788151917 | 30° C | 46% | 1015 hPa | 0 mm | - | 0 W/m² | - |
| 1788151612 | 30° C | 46% | 1014.8 hPa | 0 mm | - | 0 W/m² | - |
| 1788151307 | 30° C | 47% | 1014.8 hPa | 0 mm | - | 0 W/m² | - |
| 1788151003 | 30° C | 47% | 1015 hPa | 0 mm | - | 0 W/m² | - |
| 1788150698 | 30° C | 46% | 1015 hPa | 0 mm | - | 0 W/m² | - |
| 1788150397 | 30.56° C | 44% | 1015 hPa | 0 mm | - | 0 W/m² | - |
| 1788150093 | 31.11° C | 43% | 1014.6 hPa | 0 mm | - | 0 W/m² | - |
| 1788149793 | 31.11° C | 41% | 1014.7 hPa | 0 mm | - | 0 W/m² | - |
| 1788149487 | 31.11° C | 41% | 1015 hPa | 0 mm | - | 0 W/m² | - |
| 1788149182 | 31.11° C | 42% | 1014.6 hPa | 0 mm | - | 0 W/m² | - |
| 1788148881 | 31.11° C | 43% | 1014.4 hPa | 0 mm | - | 0 W/m² | - |
| 1788148580 | 30.56° C | 44% | 1014.3 hPa | 0 mm | - | 0 W/m² | - |
| 1788148274 | 30.56° C | 45% | 1014.4 hPa | 0 mm | - | 0 W/m² | - |
| 1788147974 | 31.11° C | 44% | 1014.4 hPa | 0 mm | - | 0 W/m² | - |
| 1788147669 | 31.67° C | 41% | 1014.3 hPa | 0 mm | - | 0 W/m² | - |
| 1788147365 | 32.22° C | 40% | 1014.2 hPa | 0 mm | - | 0 W/m² | - |
| 1788147069 | 32.22° C | 38% | 1014 hPa | 0 mm | - | 0 W/m² | - |
| 1788146759 | 32.22° C | 38% | 1013.7 hPa | 0 mm | - | 0 W/m² | - |
| 1788146455 | 32.22° C | 38% | 1013.9 hPa | 0 mm | - | 0 W/m² | - |
| 1788146154 | 32.78° C | 38% | 1013.7 hPa | 0 mm | - | 0 W/m² | - |
| 1788145854 | 32.78° C | 37% | 1013.7 hPa | 0 mm | - | 0 W/m² | - |
| 1788145553 | 32.78° C | 37% | 1013.3 hPa | 0 mm | - | 0 W/m² | - |
* Rain latest hour (hover to see other rain measurements)
** Current wind speed in m/s (hover to see current wind gust speed)